TimeEDT,TemperatureF,Dew PointF,Humidity,Sea Level PressureIn,VisibilityMPH,Wind Direction,Wind SpeedMPH,Gust SpeedMPH,PrecipitationIn,Events,Conditions,WindDirDegrees,DateUTC
12:15 AM,50.2,49.6,98,30.03,4.0,Calm,Calm,-,0.02,Rain,Rain,0,2013-03-31 04:15:00
12:35 AM,49.6,49.3,99,30.01,3.0,Calm,Calm,-,0.03,Rain,Light Rain,0,2013-03-31 04:35:00
12:55 AM,49.6,49.3,99,30.00,1.8,NNW,3.5,-,0.04,Rain,Rain,330,2013-03-31 04:55:00
1:15 AM,50.0,49.6,99,29.98,2.5,Calm,Calm,-,0.01,Rain,Rain,0,2013-03-31 05:15:00
1:35 AM,50.0,49.5,98,29.98,4.0,Calm,Calm,-,0.01,Rain,Light Rain,0,2013-03-31 05:35:00
1:55 AM,50.0,49.5,98,29.98,4.0,Calm,Calm,-,0.02,Rain,Rain,0,2013-03-31 05:55:00
2:15 AM,50.0,49.5,98,29.97,4.0,Calm,Calm,-,N/A,Rain,Rain,0,2013-03-31 06:15:00
2:35 AM,50.0,49.5,98,29.96,2.5,Calm,Calm,-,N/A,Rain,Rain,0,2013-03-31 06:35:00
2:55 AM,50.0,49.5,98,29.96,2.5,Calm,Calm,-,N/A,Rain,Rain,0,2013-03-31 06:55:00
3:15 AM,50.2,50.0,99,29.95,3.0,Calm,Calm,-,N/A,Rain,Rain,0,2013-03-31 07:15:00
3:35 AM,50.9,50.4,98,29.94,4.0,Calm,Calm,-,0.02,Rain,Rain,0,2013-03-31 07:35:00
3:55 AM,50.5,50.2,99,29.94,3.0,Calm,Calm,-,0.02,Rain,Rain,0,2013-03-31 07:55:00
4:15 AM,50.5,50.4,99,29.93,3.0,Calm,Calm,-,N/A,Rain,Rain,0,2013-03-31 08:15:00
4:35 AM,50.9,50.7,99,29.93,4.0,Calm,Calm,-,N/A,Rain,Rain,0,2013-03-31 08:35:00
4:55 AM,51.6,51.4,99,29.93,4.0,West,8.1,-,N/A,Rain,Heavy Rain,270,2013-03-31 08:55:00
5:15 AM,52.0,51.3,97,29.92,5.0,WSW,3.5,-,N/A,Rain,Rain,250,2013-03-31 09:15:00
5:35 AM,52.3,51.6,97,29.91,5.0,West,3.5,-,N/A,Rain,Light Rain,270,2013-03-31 09:35:00
5:55 AM,52.7,51.8,97,29.91,5.0,WSW,3.5,-,N/A,Rain,Rain,250,2013-03-31 09:55:00
6:15 AM,52.7,51.8,97,29.91,4.0,WSW,5.8,-,N/A,Rain,Rain,250,2013-03-31 10:15:00
6:35 AM,52.7,51.8,97,29.92,5.0,West,5.8,-,N/A,Rain,Heavy Rain,260,2013-03-31 10:35:00
6:55 AM,52.7,51.8,97,29.93,7.0,West,4.6,-,N/A,,Drizzle,270,2013-03-31 10:55:00
7:15 AM,52.7,51.6,96,29.93,10.0,WSW,4.6,-,N/A,,Overcast,250,2013-03-31 11:15:00
7:35 AM,52.9,51.4,95,29.93,10.0,West,3.5,-,N/A,,Overcast,270,2013-03-31 11:35:00
7:55 AM,52.9,51.3,94,29.93,10.0,Calm,Calm,-,N/A,,Drizzle,0,2013-03-31 11:55:00
8:15 AM,52.9,51.3,94,29.93,10.0,SW,5.8,-,N/A,,Overcast,230,2013-03-31 12:15:00
8:35 AM,53.6,50.9,91,29.94,10.0,SW,5.8,-,N/A,,Overcast,230,2013-03-31 12:35:00
8:55 AM,54.1,51.1,89,29.95,10.0,SW,8.1,-,N/A,,Overcast,230,2013-03-31 12:55:00
9:15 AM,54.5,50.9,88,29.95,10.0,SW,8.1,-,N/A,,Overcast,220,2013-03-31 13:15:00
9:35 AM,54.5,50.9,88,29.96,10.0,SW,6.9,-,N/A,,Overcast,220,2013-03-31 13:35:00
9:55 AM,54.5,50.9,88,29.96,10.0,SW,8.1,-,N/A,,Overcast,220,2013-03-31 13:55:00
10:15 AM,55.2,50.7,85,29.96,10.0,SW,10.4,-,N/A,,Overcast,230,2013-03-31 14:15:00
10:35 AM,55.6,51.3,85,29.95,10.0,WSW,9.2,-,N/A,,Overcast,240,2013-03-31 14:35:00
10:55 AM,55.4,50.5,84,29.95,10.0,SW,8.1,-,N/A,,Overcast,230,2013-03-31 14:55:00
11:15 AM,55.9,50.4,82,29.94,10.0,SW,8.1,-,N/A,,Overcast,230,2013-03-31 15:15:00
11:35 AM,55.8,50.7,83,29.95,10.0,WSW,8.1,-,N/A,,Overcast,240,2013-03-31 15:35:00
11:55 AM,55.9,50.7,83,29.96,10.0,WSW,5.8,-,N/A,,Overcast,240,2013-03-31 15:55:00
12:15 PM,56.5,51.1,82,29.95,10.0,Calm,Calm,-,N/A,,Overcast,0,2013-03-31 16:15:00
12:35 PM,56.8,50.9,80,29.95,10.0,SW,4.6,-,N/A,,Overcast,230,2013-03-31 16:35:00
12:55 PM,56.5,50.7,81,29.95,10.0,WSW,4.6,-,N/A,,Overcast,250,2013-03-31 16:55:00
1:15 PM,57.2,51.1,80,29.94,10.0,WNW,4.6,-,N/A,,Overcast,290,2013-03-31 17:15:00
1:35 PM,57.7,51.1,78,29.93,10.0,West,3.5,-,N/A,,Overcast,270,2013-03-31 17:35:00
1:55 PM,58.8,50.7,74,29.91,10.0,Calm,Calm,-,N/A,,Overcast,0,2013-03-31 17:55:00
2:15 PM,59.0,51.6,76,29.92,10.0,Calm,Calm,-,N/A,,Overcast,0,2013-03-31 18:15:00
2:35 PM,59.5,51.1,74,29.91,10.0,West,6.9,-,N/A,,Overcast,260,2013-03-31 18:35:00
2:55 PM,58.3,50.9,76,29.91,10.0,SW,8.1,-,N/A,Rain,Rain,230,2013-03-31 18:55:00
3:15 PM,57.2,51.6,82,29.91,7.0,WSW,6.9,-,N/A,Rain,Light Rain,240,2013-03-31 19:15:00
3:35 PM,56.5,52.5,87,29.91,10.0,West,6.9,-,N/A,Rain,Light Rain,260,2013-03-31 19:35:00
3:55 PM,56.5,53.1,88,29.90,7.0,WSW,4.6,-,N/A,Rain,Light Rain,250,2013-03-31 19:55:00
4:15 PM,55.9,52.7,89,29.89,7.0,SSW,4.6,-,N/A,Rain,Light Rain,210,2013-03-31 20:15:00
4:35 PM,55.8,52.9,90,29.89,10.0,West,4.6,-,N/A,,Overcast,280,2013-03-31 20:35:00
4:55 PM,56.3,53.2,89,29.89,10.0,West,3.5,-,N/A,,Overcast,260,2013-03-31 20:55:00
5:15 PM,56.5,53.8,91,29.89,10.0,Calm,Calm,-,N/A,,Overcast,0,2013-03-31 21:15:00
5:35 PM,56.7,53.6,89,29.89,7.0,WSW,3.5,-,N/A,Rain,Rain,240,2013-03-31 21:35:00
5:55 PM,55.9,54.3,94,29.89,5.0,Calm,Calm,-,N/A,Rain,Light Rain,0,2013-03-31 21:55:00
6:15 PM,55.9,54.1,94,29.89,10.0,Calm,Calm,-,N/A,,Overcast,0,2013-03-31 22:15:00
6:35 PM,56.5,54.1,92,29.88,10.0,Calm,Calm,-,N/A,,Overcast,0,2013-03-31 22:35:00
6:55 PM,56.3,53.8,91,29.89,10.0,Calm,Calm,-,N/A,,Overcast,0,2013-03-31 22:55:00
7:15 PM,55.9,53.6,92,29.88,10.0,Calm,Calm,-,N/A,Rain,Light Rain,0,2013-03-31 23:15:00
7:35 PM,55.4,54.1,96,29.88,10.0,Calm,Calm,-,N/A,Rain,Light Rain,0,2013-03-31 23:35:00
7:55 PM,54.9,54.1,97,29.88,7.0,Calm,Calm,-,N/A,Rain,Light Rain,0,2013-03-31 23:55:00
8:15 PM,55.2,54.1,96,29.88,7.0,Calm,Calm,-,0.01,Rain,Light Rain,0,2013-04-01 00:15:00
8:35 PM,55.4,54.0,95,29.88,10.0,Calm,Calm,-,0.01,Rain,Light Rain,0,2013-04-01 00:35:00
8:55 PM,55.2,54.1,96,29.88,7.0,Calm,Calm,-,0.03,Rain,Light Rain,0,2013-04-01 00:55:00
9:15 PM,55.0,54.0,96,29.88,10.0,Calm,Calm,-,0.01,Rain,Rain,0,2013-04-01 01:15:00
9:35 PM,55.0,53.8,96,29.89,10.0,Calm,Calm,-,0.01,Rain,Rain,0,2013-04-01 01:35:00
9:55 PM,55.0,54.0,96,29.89,10.0,Calm,Calm,-,0.01,,Overcast,0,2013-04-01 01:55:00
10:15 PM,55.0,53.8,96,29.90,10.0,Calm,Calm,-,N/A,,Overcast,0,2013-04-01 02:15:00
10:35 PM,54.9,53.4,95,29.89,10.0,Calm,Calm,-,N/A,,Overcast,0,2013-04-01 02:35:00
10:55 PM,54.5,53.6,97,29.89,10.0,Calm,Calm,-,N/A,Rain,Rain,0,2013-04-01 02:55:00
11:15 PM,54.3,53.6,97,29.89,10.0,Calm,Calm,-,N/A,,Overcast,0,2013-04-01 03:15:00
11:35 PM,54.1,53.2,97,29.90,7.0,Calm,Calm,-,N/A,Rain,Rain,0,2013-04-01 03:35:00
11:55 PM,54.7,53.6,96,29.90,7.0,West,3.5,-,0.01,Rain,Rain,280,2013-04-01 03:55:00